This demonstration page uses our WeatherBlox Daily Observations layout. Learn more.

Left ArrowRight Arrow

Hourly Observations for May 15, 2020

Temp ( °F °C ) Dew Point ( °F °C ) Humidity (%) Winds ( mph kmh ) Pressure ( in mb ) Visibility ( mi km ) Precip ( " mm )
12:53 am 00:53 Clear 55 12.8 54 12.2 96 96 Calm 30.07 1018 10 16 0.00 0.00
1:53 am 01:53 Mostly Clear 55 12.8 53 11.7 93 93 Calm 30.07 1018 10 16 0.00 0.00
2:53 am 02:53 Mostly Cloudy 54 12.2 52 11.1 93 93 NW 5 7 30.07 1018 10 16 0.00 0.00
3:53 am 03:53 Cloudy 54 12.2 52 11.1 93 93 Calm 30.08 1019 10 16 0.00 0.00
4:53 am 04:53 Mostly Cloudy 53 11.7 51 10.6 93 93 Calm 30.08 1019 10 16 0.00 0.00
5:53 am 05:53 Sunny 51 10.6 49 9.4 92 92 Calm 30.08 1019 10 16 0.00 0.00
6:53 am 06:53 Sunny 53 11.7 51 10.6 93 93 NW 3 6 30.09 1019 10 16 0.00 0.00
7:53 am 07:53 Partly Cloudy 57 13.9 49 9.4 74 74 NNW 7 11 30.10 1019 10 16 0.00 0.00
8:53 am 08:53 Sunny 60 15.6 48 8.9 65 65 N 9 15 30.10 1019 10 16 0.00 0.00
9:53 am 09:53 Sunny 65 18.3 49 9.4 56 56 N 7 11 30.09 1019 10 16 0.00 0.00
10:53 am 10:53 Sunny 68 20 49 9.4 51 51 N 7 11 30.08 1019 10 16 0.00 0.00
11:53 am 11:53 Sunny 70 21.1 48 8.9 46 46 Calm 30.08 1019 10 16 0.00 0.00
12:53 pm 12:53 Sunny 72 22.2 47 8.3 41 41 W 5 7 30.06 1018 10 16 0.00 0.00
1:53 pm 13:53 Sunny 74 23.3 45 7.2 36 36 VRB 5 7 30.04 1017 10 16 0.00 0.00
2:53 pm 14:53 Sunny 75 23.9 39 3.9 27 27 NW 5 7 30.02 1017 10 16 0.00 0.00
3:53 pm 15:53 Sunny 78 25.6 38 3.3 24 24 Calm 30.00 1016 10 16 0.00 0.00
4:53 pm 16:53 Sunny 77 25 40 4.4 26 26 VRB 5 7 29.98 1015 10 16 0.00 0.00
5:53 pm 17:53 Sunny 77 25 40 4.4 26 26 ESE 3 6 29.96 1015 10 16 0.00 0.00
6:53 pm 18:53 Sunny 75 23.9 42 5.6 31 31 ENE 3 6 29.96 1014 10 16 0.00 0.00
7:53 pm 19:53 Sunny 72 22.2 47 8.3 41 41 NE 3 6 29.95 1014 10 16 0.00 0.00
8:53 pm 20:53 Clear 68 20 51 10.6 55 55 Calm 29.95 1014 10 16 0.00 0.00
9:53 pm 21:53 Clear 63 17.2 52 11.1 68 68 Calm 29.97 1015 10 16 0.00 0.00
10:53 pm 22:53 Clear 62 16.7 54 12.2 75 75 NNE 5 7 29.97 1015 10 16 0.00 0.00
11:53 pm 23:53 Clear 63 17.2 52 11.1 68 68 NW 3 6 29.96 1014 10 16 0.00 0.00

Powered by AerisWeather